| time (UTC) | temp F | wind direction | speed MPH | gust MPH | rain 1hr in | rain 24hr in | rain mn in | humidity % | barometer mb |
| 20260504033003 | 45 | 291 | 5.0 | 5.0 | 0.00 | 0.00 | 0.00 | 10 | 1020.0 |
| 20260504031502 | 45 | 291 | 5.0 | 5.0 | 0.00 | 0.00 | 0.00 | 10 | 1020.0 |
| 20260504024502 | 45 | 291 | 5.0 | 5.0 | 0.00 | 0.00 | 0.00 | 10 | 1020.0 |
| 20260504021501 | 44 | 291 | 5.0 | 5.0 | 0.00 | 0.00 | 0.00 | 10 | 1020.0 |
| 20260504020001 | 44 | 291 | 5.0 | 6.0 | 0.00 | 0.00 | 0.00 | 10 | 1020.0 |
| 20260504014501 | 43 | 291 | 5.0 | 6.0 | 0.00 | 0.00 | 0.00 | 10 | 1020.0 |
| 20260504013001 | 43 | 289 | 4.0 | 6.0 | 0.00 | 0.00 | 0.00 | 10 | 1020.0 |
| 20260504011500 | 43 | 289 | 4.0 | 6.0 | 0.00 | 0.00 | 0.00 | 10 | 1020.0 |
| 20260504010000 | 43 | 289 | 4.0 | 6.0 | 0.00 | 0.00 | 0.00 | 10 | 1020.0 |
| 20260504004500 | 43 | 298 | 4.0 | 4.0 | 0.00 | 0.00 | 0.00 | 10 | 1020.0 |
| 20260504003000 | 44 | 293 | 4.0 | 4.0 | 0.00 | 0.00 | 0.00 | 10 | 1020.0 |
| 20260504001500 | 46 | 293 | 4.0 | 4.0 | 0.00 | 0.00 | 0.00 | 10 | 1020.0 |
| 20260503235959 | 46 | 293 | 4.0 | 4.0 | 0.00 | 0.00 | 0.00 | 10 | 1020.0 |
| 20260503234459 | 45 | 293 | 4.0 | 4.0 | 0.00 | 0.00 | 0.00 | 10 | 1020.0 |
| 20260503232959 | 45 | 289 | 2.0 | 2.0 | 0.00 | 0.00 | 0.00 | 10 | 1020.0 |
| 20260503231458 | 45 | 317 | 1.0 | 1.0 | 0.00 | 0.00 | 0.00 | 10 | 1020.0 |
| 20260503225958 | 46 | 317 | 1.0 | 1.0 | 0.00 | 0.00 | 0.00 | 10 | 1020.0 |
| 20260503224458 | 46 | 317 | 1.0 | 1.0 | 0.00 | 0.00 | 0.00 | 10 | 1020.0 |
| 20260503222958 | 46 | 317 | 1.0 | 1.0 | 0.00 | 0.00 | 0.00 | 10 | 1020.0 |
| 20260503221457 | 46 | 317 | 1.0 | 1.0 | 0.00 | 0.00 | 0.00 | 10 | 1020.0 |
| 20260503215957 | 47 | 317 | 1.0 | 1.0 | 0.00 | 0.00 | 0.00 | 10 | 1020.0 |
| 20260503214457 | 46 | 317 | 1.0 | 1.0 | 0.00 | 0.00 | 0.00 | 10 | 1020.0 |
| 20260503212957 | 47 | 317 | 1.0 | 1.0 | 0.00 | 0.00 | 0.00 | 10 | 1020.0 |
| 20260503211456 | 47 | 317 | 1.0 | 2.0 | 0.00 | 0.00 | 0.00 | 10 | 1020.0 |
| 20260503205956 | 46 | 95 | 1.0 | 1.0 | 0.00 | 0.00 | 0.00 | 10 | 1020.0 |
| 20260503204456 | 47 | 95 | 1.0 | 1.0 | 0.00 | 0.00 | 0.00 | 10 | 1020.0 |
| 20260503202956 | 48 | 95 | 1.0 | 1.0 | 0.00 | 0.00 | 0.00 | 10 | 1020.0 |
| 20260503201455 | 48 | 95 | 1.0 | 1.0 | 0.00 | 0.00 | 0.00 | 10 | 1020.0 |
| 20260503195955 | 48 | 95 | 1.0 | 1.0 | 0.00 | 0.00 | 0.00 | 99 | 1020.0 |
| 20260503194455 | 48 | 95 | 1.0 | 1.0 | 0.00 | 0.00 | 0.00 | 98 | 1020.0 |
| 20260503192955 | 49 | 95 | 1.0 | 1.0 | 0.00 | 0.00 | 0.00 | 96 | 1020.0 |
| 20260503191454 | 50 | 95 | 1.0 | 1.0 | 0.00 | 0.00 | 0.00 | 91 | 1020.0 |
| 20260503185954 | 51 | 95 | 1.0 | 1.0 | 0.00 | 0.00 | 0.00 | 82 | 1020.0 |
| 20260503184454 | 53 | 95 | 1.0 | 1.0 | 0.00 | 0.00 | 0.00 | 73 | 1020.0 |
| 20260503182954 | 55 | 95 | 1.0 | 1.0 | 0.00 | 0.00 | 0.00 | 67 | 1020.0 |
| 20260503181453 | 55 | 95 | 1.0 | 1.0 | 0.00 | 0.00 | 0.00 | 65 | 1019.0 |
| 20260503175953 | 55 | 95 | 1.0 | 1.0 | 0.00 | 0.00 | 0.00 | 68 | 1019.0 |
| 20260503174453 | 56 | 95 | 1.0 | 1.0 | 0.00 | 0.00 | 0.00 | 59 | 1019.0 |
| 20260503172953 | 57 | 95 | 1.0 | 1.0 | 0.00 | 0.00 | 0.00 | 68 | 1019.0 |
| 20260503171452 | 57 | 95 | 1.0 | 1.0 | 0.00 | 0.00 | 0.00 | 70 | 1019.0 |
| 20260503081104 | 46 | 339 | 1.0 | 1.0 | 0.00 | 0.00 | 0.00 | 92 | 1020.0 |
| 20260503072603 | 44 | 339 | 1.0 | 1.0 | 0.00 | 0.00 | 0.00 | 91 | 1019.0 |
| 20260503071103 | 45 | 339 | 1.0 | 1.0 | 0.00 | 0.00 | 0.00 | 91 | 1019.0 |
| 20260503054101 | 50 | 339 | 1.0 | 1.0 | 0.00 | 0.00 | 0.00 | 92 | 1018.0 |
| 20260503052601 | 49 | 339 | 1.0 | 1.0 | 0.00 | 0.00 | 0.00 | 92 | 1018.0 |
| 20260503051101 | 48 | 339 | 1.0 | 1.0 | 0.00 | 0.00 | 0.00 | 90 | 1018.0 |
| 20260503045601 | 46 | 339 | 1.0 | 1.0 | 0.00 | 0.00 | 0.00 | 84 | 1018.0 |
| 20260503044100 | 46 | 339 | 1.0 | 1.0 | 0.00 | 0.00 | 0.00 | 88 | 1018.0 |
| 20260503042600 | 47 | 339 | 1.0 | 1.0 | 0.00 | 0.00 | 0.00 | 94 | 1018.0 |
| 20260503041100 | 47 | 339 | 1.0 | 1.0 | 0.00 | 0.00 | 0.00 | 94 | 1018.0 |
| 20260503035600 | 48 | 339 | 1.0 | 1.0 | 0.00 | 0.00 | 0.00 | 95 | 1018.0 |
| 20260503034059 | 49 | 339 | 1.0 | 1.0 | 0.00 | 0.00 | 0.00 | 96 | 1018.0 |